Location: Riddle Hill
(39.7867°N, 89.7645°W)
Time: 21:54:37
(UTC+00:00)

NOSS 3-3 (C) - Pass Details

Date: 29 October 2020
Orbit: 827 x 1385 km, 63.5° (Epoch: 29 November)

Event Time Altitude Azimuth Distance (km) Brightness Sun altitude
Rises 23:22:38 0° 190° (S) 3,369 7.2 -5.0°
Reaches altitude 10° 23:25:07 10° 183° (S) 2,467 6.4 -5.5°
Maximum altitude 23:30:24 42° 114° (ESE) 1,267 4.3 -6.5°
Drops below altitude 10° 23:36:13 10° 46° (NE) 2,727 5.8 -7.6°
Enters shadow 23:38:42 - 41° (NE) 3,621 6.5 -8.1°
